Regional Weather Roundup
Issued by NWS

Home | Current Version | Previous Version | Text Only | Print | Product List | Glossary On
Versions: 1 2 3 4 5 6 7 8 9 10 11 12 13 14 15 16 17 18 19 20 21 22 23 24 25 26 27 28 29 30 31 32 33 34 35 36 37 38 39 40 41 42 43 44 45 46 47 48 49 50
000
ASUS43 KLMK 290602
RWRKY
KENTUCKY REGIONAL WEATHER ROUNDUP
NATIONAL WEATHER SERVICE LOUISVILLE KY
200 AM EDT FRI JUL 29 2016

NOTE "FAIR" INDICATES FEW OR NO CLOUDS BELOW 12,000 FEET
WITH NO SIGNIFICANT WEATHER AND/OR OBSTRUCTIONS TO VISIBILITY.

KYZ001>023-026-027-061>063-070>075-290700-
WESTERN AND SOUTH CENTRAL KENTUCKY

CITY           SKY/WX    TMP DP  RH WIND       PRES   REMARKS
PADUCAH        CLOUDY    75  71  87 CALM      29.93R
HENDERSON      PTCLDY    72  68  88 CALM      29.89S
OWENSBORO      CLOUDY    73  73 100 S5        29.91F
HOPKINSVILLE   NOT AVBL
BOWLING GREEN  LGT RAIN  74  71  91 W5        29.92F
GLASGOW        NOT AVBL
$$

KYZ024-025-028>034-038-045-046-053-290700-
NORTH CENTRAL KENTUCKY

CITY           SKY/WX    TMP DP  RH WIND       PRES   REMARKS
LOUISVILLE/SDF CLOUDY    78  72  81 SW7       29.90S
LOUISVILLE/LOU MOCLDY    76  70  82 S3        29.91F
FORT KNOX      NOT AVBL
$$

KYZ035>037-039>044-047>052-055>060-089>105-290700-
NORTHEAST KENTUCKY

CITY           SKY/WX    TMP DP  RH WIND       PRES   REMARKS
LEXINGTON      PTCLDY    71  69  93 S3        29.94F
COVINGTON      FOG       73  73 100 SW3       29.93R VSB 1
FRANKFORT      MOCLDY    73  70  90 CALM      29.92F
$$

KYZ054-064>069-076>088-106>120-290700-
SOUTHEAST KENTUCKY

CITY           SKY/WX    TMP DP  RH WIND       PRES   REMARKS
JACKSON        FOG       69  68  96 CALM      29.97F VSB 1/4
LONDON         FOG       69  67  93 S3        29.98S VSB 1/4
SOMERSET       FOG       68  68 100 CALM      29.97F VSB 1/4
MIDDLESBORO    CLOUDY    69  69 100 CALM      29.99S
MONTICELLO     MOCLDY   N/A N/A N/A VRB5      29.99S FOG
$$





USA.gov is the U.S. government's official web portal to all federal, state and local government web resources and services.